Location: Benalto
(52.3088°N, 114.2787°W)
Time: 12:22:17
(UTC+00:00)

N. Korean satellite - Pass Details

Date: 02 December 2021
Orbit: 447 x 490 km, 97.3° (Epoch: 27 January)

Event Time Altitude Azimuth Distance (km) Brightness Sun altitude
Rises 12:02:03 0° 27° (NNE) 2,478 10.5 -30.1°
Reaches altitude 10° 12:04:37 10° 48° (NE) 1,592 9.7 -29.7°
Maximum altitude 12:06:58 17° 91° (E) 1,206 9.3 -29.3°
Drops below altitude 10° 12:09:17 10° 135° (SE) 1,576 9.6 -29.0°
Sets 12:11:49 0° 156° (SSE) 2,440 10.4 -28.6°
